Starlink 32878

operational
NORAD ID: 62892 Int'l Des: 2025-024 Owner: SPXS Country: US Constellation: starlink
LEOCIRCULAR

Über Starlink 32878

Beschreibung wird geladen...

Live-Position

3D-Globus wird geladen...

Nächste Überflüge

Höhenverlauf

Altitude vs Time

uPlot chart will show altitude changes over time

Zweizeiliger Elementsatz

1 62892U 25024P 25259.29882461 .00039828 00000-0 14472-2 0 9993
2 62892 43.0013 230.3621 0001302 266.3244 93.7459 15.27622645 35599
Epoch: 16. Sept. 2025 • Age: 18 hours

Aktueller Status

Höhe 486.6 km
Geschwindigkeit 7.63 km/s
Subsatellitenpunkt 42.44°N, 64.53°W
Startdatum 4. Feb. 2025
Alter 0.6 years
Typ internet

Technische Details

Klassifizierung Payload
Masse 730.00 kg
Trockenmasse 700.00 kg
Gesamtmasse 730.00 kg
Länge 0.30 m
Durchmesser 4.10 m
Spannweite 29.00 m
Form Box + pan
Hersteller SPXS
Bus-Typ Starlink V2M
Phasenstatus In Orbit
Besitzer/Staat SPXS/US

Große Konstellationen

Loading constellations...